When you browse on this site, cookies collect data to enhance your experience and personalize the content and advertising you see.
Visit our Privacy Policy to learn more. By continuing to use the site, you agree to this use of cookies and data.
  • In Hungary
  • List of Countries
  • For 7 days
  • Water Temperature
  • Weather Map
  • News
  • Weather Widgets
  • user-avatar
    Login

    Hourly Weather Grasino

    Today, 23 September, Monday

    Time Temperature Precipitation Wind Pressure Humidity
    00:00 +11°C° 0 mm 4 mps 756 mmHg 95%
    01:00 +11°C° 0 mm 4 mps 756 mmHg 96%
    02:00 +10°C° 0 mm 5 mps 756 mmHg 94%
    03:00 +12°C° 0 mm 5 mps 756 mmHg 91%
    04:00 +11°C° 0 mm 6 mps 756 mmHg 89%
    05:00 +11°C° 0 mm 6 mps 756 mmHg 87%
    06:00 +11°C° 0 mm 6 mps 756 mmHg 85%
    07:00 +10°C° 0 mm 6 mps 757 mmHg 83%
    08:00 +12°C° 0 mm 5 mps 757 mmHg 79%
    09:00 +13°C° 0 mm 5 mps 757 mmHg 74%
    10:00 +14°C° 0 mm 5 mps 758 mmHg 70%
    11:00 +15°C° 0 mm 5 mps 757 mmHg 67%
    12:00 +16°C° 0 mm 5 mps 757 mmHg 64%
    13:00 +17°C° 0 mm 5 mps 757 mmHg 61%
    14:00 +17°C° 0 mm 5 mps 757 mmHg 61%
    15:00 +17°C° 0 mm 5 mps 757 mmHg 62%
    16:00 +17°C° 0 mm 5 mps 756 mmHg 62%
    17:00 +15°C° 0 mm 5 mps 757 mmHg 67%
    18:00 +13°C° 0 mm 5 mps 757 mmHg 71%
    19:00 +12°C° 0 mm 5 mps 757 mmHg 75%
    20:00 +11°C° 0 mm 4 mps 757 mmHg 77%
    21:00 +11°C° 0 mm 4 mps 757 mmHg 78%
    22:00 +10°C° 0 mm 4 mps 757 mmHg 80%
    23:00 +10°C° 0 mm 4 mps 757 mmHg 82%

    Tomorrow, 24 September, Tuesday

    Time Temperature Precipitation Wind Pressure Humidity
    00:00 +10°C° 0 mm 3 mps 757 mmHg 83%
    01:00 +9°C° 0 mm 3 mps 757 mmHg 85%
    02:00 +9°C° 0 mm 3 mps 756 mmHg 86%
    03:00 +9°C° 0 mm 3 mps 756 mmHg 88%
    04:00 +9°C° 0 mm 3 mps 756 mmHg 89%
    05:00 +9°C° 0 mm 3 mps 755 mmHg 87%
    06:00 +9°C° 0 mm 3 mps 755 mmHg 85%
    07:00 +10°C° 0 mm 3 mps 755 mmHg 83%
    08:00 +12°C° 0 mm 3 mps 755 mmHg 77%
    09:00 +14°C° 0 mm 3 mps 755 mmHg 70%
    10:00 +16°C° 0 mm 3 mps 755 mmHg 64%
    11:00 +18°C° 0 mm 3 mps 755 mmHg 61%
    12:00 +19°C° 0 mm 3 mps 755 mmHg 58%
    13:00 +20°C° 0 mm 3 mps 754 mmHg 55%
    14:00 +20°C° 0 mm 3 mps 754 mmHg 56%
    15:00 +20°C° 0 mm 3 mps 753 mmHg 57%
    16:00 +20°C° 0 mm 3 mps 753 mmHg 58%
    17:00 +18°C° 0 mm 3 mps 753 mmHg 63%
    18:00 +17°C° 0 mm 3 mps 753 mmHg 68%
    19:00 +14°C° 0 mm 3 mps 752 mmHg 73%
    20:00 +14°C° 0.1 mm 4 mps 752 mmHg 73%
    21:00 +14°C° 0.1 mm 4 mps 752 mmHg 73%
    22:00 +14°C° 0.1 mm 4 mps 752 mmHg 73%
    23:00 +14°C° 1.2 mm 4 mps 752 mmHg 78%

    Day after tomorrow, 25 September, Wednesday

    Time Temperature Precipitation Wind Pressure Humidity
    00:00 +13°C° 1.2 mm 4 mps 751 mmHg 82%
    01:00 +13°C° 1.2 mm 4 mps 751 mmHg 87%
    02:00 +13°C° 0.6 mm 4 mps 751 mmHg 87%
    03:00 +13°C° 0.6 mm 4 mps 750 mmHg 88%
    04:00 +12°C° 0.6 mm 4 mps 750 mmHg 88%
    05:00 +12°C° 0.2 mm 4 mps 750 mmHg 87%
    06:00 +12°C° 0.2 mm 4 mps 750 mmHg 86%
    07:00 +12°C° 0.2 mm 3 mps 750 mmHg 85%
    08:00 +12°C° 0.1 mm 3 mps 750 mmHg 84%
    09:00 +13°C° 0.1 mm 3 mps 750 mmHg 82%
    10:00 +13°C° 0.1 mm 3 mps 750 mmHg 81%
    11:00 +13°C° 0 mm 3 mps 750 mmHg 82%
    12:00 +14°C° 0 mm 3 mps 750 mmHg 82%
    13:00 +14°C° 0 mm 3 mps 750 mmHg 82%
    14:00 +14°C° 0 mm 3 mps 749 mmHg 81%
    15:00 +16°C° 0 mm 3 mps 749 mmHg 80%
    16:00 +16°C° 0 mm 3 mps 749 mmHg 79%
    17:00 +14°C° 0 mm 3 mps 749 mmHg 82%
    18:00 +14°C° 0 mm 3 mps 749 mmHg 85%
    19:00 +13°C° 0 mm 3 mps 750 mmHg 87%
    20:00 +13°C° 0 mm 3 mps 750 mmHg 87%
    21:00 +13°C° 0 mm 3 mps 750 mmHg 87%
    22:00 +13°C° 0 mm 3 mps 750 mmHg 87%
    23:00 +14°C° 0 mm 2 mps 750 mmHg 88%

    26 September, Thursday

    Time Temperature Precipitation Wind Pressure Humidity
    00:00 +14°C° 0 mm 2 mps 750 mmHg 89%
    01:00 +14°C° 0 mm 2 mps 750 mmHg 90%
    02:00 +14°C° 0 mm 2 mps 750 mmHg 90%
    03:00 +14°C° 0 mm 2 mps 750 mmHg 90%
    04:00 +13°C° 0 mm 2 mps 750 mmHg 90%
    05:00 +14°C° 0 mm 2 mps 751 mmHg 89%
    06:00 +14°C° 0 mm 2 mps 751 mmHg 89%
    07:00 +14°C° 0 mm 2 mps 751 mmHg 89%
    08:00 +14°C° 0 mm 2 mps 752 mmHg 86%
    09:00 +15°C° 0 mm 2 mps 752 mmHg 82%
    10:00 +16°C° 0 mm 1 mps 753 mmHg 79%
    11:00 +16°C° 0 mm 1 mps 753 mmHg 78%
    12:00 +18°C° 0 mm 1 mps 753 mmHg 76%
    13:00 +18°C° 0 mm 1 mps 753 mmHg 74%
    14:00 +19°C° 0 mm 1 mps 753 mmHg 73%
    15:00 +19°C° 0 mm 1 mps 753 mmHg 73%
    16:00 +19°C° 0 mm 1 mps 753 mmHg 72%
    17:00 +18°C° 0 mm 1 mps 753 mmHg 78%
    18:00 +15°C° 0 mm 1 mps 754 mmHg 84%
    19:00 +14°C° 0 mm 1 mps 754 mmHg 90%
    20:00 +14°C° 0 mm 1 mps 754 mmHg 91%
    21:00 +14°C° 0 mm 1 mps 754 mmHg 91%
    22:00 +13°C° 0 mm 2 mps 754 mmHg 92%
    23:00 +13°C° 0 mm 2 mps 754 mmHg 93%

    27 September, Friday

    Time Temperature Precipitation Wind Pressure Humidity
    00:00 +13°C° 0 mm 2 mps 754 mmHg 93%
    01:00 +13°C° 0 mm 2 mps 754 mmHg 93%
    02:00 +13°C° 0 mm 2 mps 754 mmHg 93%
    03:00 +12°C° 0 mm 3 mps 754 mmHg 93%
    04:00 +12°C° 0 mm 3 mps 754 mmHg 92%
    05:00 +12°C° 0 mm 3 mps 754 mmHg 91%
    06:00 +13°C° 0 mm 4 mps 753 mmHg 89%
    07:00 +13°C° 0 mm 4 mps 753 mmHg 87%
    08:00 +14°C° 0 mm 4 mps 753 mmHg 83%
    09:00 +15°C° 0 mm 4 mps 754 mmHg 79%
    10:00 +17°C° 0 mm 5 mps 754 mmHg 75%
    11:00 +16°C° 0.2 mm 5 mps 753 mmHg 78%
    12:00 +16°C° 0.2 mm 5 mps 753 mmHg 80%
    13:00 +16°C° 0.2 mm 5 mps 753 mmHg 83%
    14:00 +16°C° 0.1 mm 5 mps 753 mmHg 84%
    15:00 +17°C° 0.1 mm 4 mps 752 mmHg 84%
    16:00 +17°C° 0.1 mm 4 mps 752 mmHg 84%
    17:00 +16°C° 0.1 mm 5 mps 752 mmHg 85%
    18:00 +16°C° 0.1 mm 5 mps 752 mmHg 87%
    19:00 +15°C° 0.1 mm 5 mps 752 mmHg 88%
    20:00 +15°C° 0.2 mm 5 mps 751 mmHg 89%
    21:00 +15°C° 0.2 mm 5 mps 751 mmHg 90%
    22:00 +15°C° 0.2 mm 5 mps 751 mmHg 91%
    23:00 +15°C° 0.4 mm 5 mps 751 mmHg 92%

    28 September, Saturday

    Time Temperature Precipitation Wind Pressure Humidity
    00:00 +14°C° 0.4 mm 4 mps 750 mmHg 94%
    01:00 +14°C° 0.4 mm 3 mps 750 mmHg 95%
    02:00 +14°C° 0.5 mm 3 mps 750 mmHg 95%
    03:00 +14°C° 0.5 mm 3 mps 750 mmHg 96%
    04:00 +15°C° 0.5 mm 2 mps 749 mmHg 96%
    05:00 +13°C° 0.5 mm 3 mps 749 mmHg 95%
    06:00 +13°C° 0.5 mm 3 mps 749 mmHg 94%
    07:00 +13°C° 0.5 mm 3 mps 749 mmHg 93%
    08:00 +14°C° 0.1 mm 4 mps 749 mmHg 87%
    09:00 +15°C° 0.1 mm 5 mps 749 mmHg 82%
    10:00 +16°C° 0.1 mm 6 mps 750 mmHg 76%
    11:00 +16°C° 0.7 mm 6 mps 749 mmHg 75%
    12:00 +16°C° 0.7 mm 7 mps 749 mmHg 73%
    13:00 +16°C° 0.7 mm 7 mps 749 mmHg 72%
    14:00 +16°C° 0.3 mm 6 mps 749 mmHg 72%
    15:00 +16°C° 0.3 mm 6 mps 749 mmHg 72%
    16:00 +15°C° 0.3 mm 5 mps 749 mmHg 73%
    17:00 +14°C° 0.2 mm 5 mps 748 mmHg 77%
    18:00 +13°C° 0.2 mm 5 mps 748 mmHg 80%
    19:00 +12°C° 0.2 mm 4 mps 748 mmHg 84%
    20:00 +12°C° 0.2 mm 5 mps 748 mmHg 85%
    21:00 +11°C° 0.2 mm 6 mps 748 mmHg 85%
    22:00 +11°C° 0.2 mm 6 mps 748 mmHg 86%
    23:00 +11°C° 0.2 mm 7 mps 748 mmHg 86%
    Show more